Location: Baili�vre
(50.0696°N, 4.2409°E)
Time: 21:48:44
(UTC+00:00)

COSMOS 2487 - Pass Details

Date: 08 August 2020
Orbit: 439 x 443 km, 74.7° (Epoch: 22 September)

Event Time Altitude Azimuth Distance (km) Brightness Sun altitude
Exits shadow 23:32:09 44° 12° (NNE) 626 3.5 -24.1°
Drops below altitude 10° 23:34:37 10° 20° (NNE) 1,566 6.0 -24.1°
Sets 23:36:42 0° 22° (NNE) 2,441 7.2 -24.1°
